WXM80 ListenWXM80 Stop

You find our weather info also at:

UK Metoffice

WeatherCloud

Weather Underground

Northeastern Weather Network

AWEKAS

Citizen Weather Observer Program (CWOP)

HAMweather, WeatherForYou, PWS Weather


Weather Underground History page Text

Daily Summary for February 19, 2017 Units:  Metric    English   Both
« Previous Day
Next Day »
Daily Weekly Monthly Yearly Custom
  High: Low: Average:
Temperature: 17.6 °C 7.5 °C 13.4 °C
Dew Point: 6.2 °C 0.3 °C 3 °C
Humidity: 65 % 40 % 50 %
Wind Speed: 12.9 km/h 0 km/h 5.5 km/h
Wind Gust: 24.1 km/h - -
Wind:- - WSW
Pressure: 1013.8 hPa 1002.3 hPa -
Precipitation: 0 mm    
Historical Graphs
 
 
Tabular Data for February 19, 2017
Time Temperature Dew Point Pressure Wind Wind Speed Wind Gust Humidity Rainfall Rate (Hourly)
00:03 13.4 °C 2.9 °C 1002.3 hPa WSW 10.5 km/h 10.5 km/h 49 % 0 mm
00:08 13.4 °C 2.9 °C 1002.3 hPa SW 6.3 km/h 14.8 km/h 49 % 0 mm
00:13 13.5 °C 3 °C 1002.6 hPa WSW 9.3 km/h 13 km/h 49 % 0 mm
00:18 13.5 °C 2.7 °C 1002.6 hPa SW 10 km/h 14.8 km/h 48 % 0 mm
00:23 13.6 °C 2.8 °C 1002.6 hPa SW 7.2 km/h 11.1 km/h 48 % 0 mm
00:28 13.7 °C 2.8 °C 1002.6 hPa SW 8.4 km/h 12.9 km/h 48 % 0 mm
00:33 13.7 °C 2.8 °C 1002.6 hPa SW 9.7 km/h 13 km/h 48 % 0 mm
00:39 13.7 °C 2.9 °C 1002.6 hPa South 6.6 km/h 11.3 km/h 48 % 0 mm
00:44 13.7 °C 2.9 °C 1002.6 hPa WSW 7.4 km/h 14.8 km/h 48 % 0 mm
00:49 13.7 °C 2.9 °C 1002.3 hPa SSW 6.8 km/h 9.7 km/h 48 % 0 mm
00:54 13.7 °C 2.9 °C 1002.6 hPa SW 7.4 km/h 13 km/h 48 % 0 mm
00:59 13.7 °C 2.8 °C 1002.6 hPa SSW 10.3 km/h 13 km/h 48 % 0 mm
01:04 13.7 °C 2.8 °C 1002.6 hPa WSW 7.7 km/h 18.5 km/h 48 % 0 mm
01:09 13.7 °C 2.9 °C 1002.6 hPa WSW 8.5 km/h 16.7 km/h 48 % 0 mm
01:14 13.8 °C 2.9 °C 1002.6 hPa WSW 8.7 km/h 18.5 km/h 48 % 0 mm
01:19 13.9 °C 2.8 °C 1002.9 hPa WSW 7.9 km/h 14.8 km/h 47 % 0 mm
01:24 14 °C 2.8 °C 1002.9 hPa West 10.1 km/h 14.8 km/h 47 % 0 mm
01:29 14.1 °C 2.9 °C 1002.9 hPa WNW 8.4 km/h 16.7 km/h 47 % 0 mm
01:34 14.2 °C 3 °C 1002.9 hPa WSW 6.3 km/h 22.2 km/h 47 % 0 mm
01:39 14.1 °C 2.9 °C 1002.9 hPa WSW 6.3 km/h 16.7 km/h 47 % 0 mm
01:44 14.1 °C 2.9 °C 1003.3 hPa SW 2.4 km/h 9.7 km/h 47 % 0 mm
01:49 14.1 °C 2.9 °C 1003.3 hPa West 3.4 km/h 18.5 km/h 47 % 0 mm
02:04 13.7 °C 2.9 °C 1003.6 hPa WSW 5.5 km/h 11.1 km/h 48 % 0 mm
02:09 13.6 °C 2.8 °C 1003.6 hPa WSW 9.2 km/h 14.8 km/h 48 % 0 mm
02:14 13.5 °C 2.7 °C 1003.3 hPa WSW 1 km/h 7.4 km/h 48 % 0 mm
02:19 13.4 °C 2.9 °C 1003.3 hPa SSW 7.1 km/h 13 km/h 49 % 0 mm
02:24 13.4 °C 2.9 °C 1003.3 hPa WSW 4.8 km/h 11.1 km/h 49 % 0 mm
02:30 13.4 °C 2.9 °C 1003.3 hPa SSW 7.2 km/h 13 km/h 49 % 0 mm
02:35 13.4 °C 2.9 °C 1003.6 hPa WSW 5.3 km/h 6.4 km/h 49 % 0 mm
02:40 13.3 °C 2.8 °C 1003.3 hPa WSW 6.1 km/h 11.1 km/h 49 % 0 mm
02:45 13.2 °C 2.7 °C 1003.6 hPa WSW 6.3 km/h 11.1 km/h 49 % 0 mm
02:50 13.1 °C 2.8 °C 1003.6 hPa SW 5.5 km/h 7.4 km/h 50 % 0 mm
02:55 12.8 °C 2.9 °C 1003.6 hPa SW 6.9 km/h 13 km/h 51 % 0 mm
03:00 12.7 °C 2.8 °C 1003.6 hPa SW 4 km/h 5.6 km/h 51 % 0 mm
03:05 12.6 °C 2.7 °C 1003.9 hPa SW 2.1 km/h 9.3 km/h 51 % 0 mm
03:10 12.4 °C 2.8 °C 1003.9 hPa WSW 4.2 km/h 5.6 km/h 52 % 0 mm
03:15 12.3 °C 2.9 °C 1003.9 hPa WSW 4.3 km/h 9.3 km/h 53 % 0 mm
03:20 12.2 °C 2.8 °C 1003.9 hPa WSW 4 km/h 9.7 km/h 53 % 0 mm
03:25 12 °C 2.7 °C 1004.3 hPa SW 5 km/h 6.4 km/h 53 % 0 mm
03:30 11.9 °C 2.9 °C 1004.3 hPa WSW 4.8 km/h 7.4 km/h 54 % 0 mm
03:35 11.8 °C 2.8 °C 1004.3 hPa SW 6.9 km/h 11.1 km/h 54 % 0 mm
03:40 11.8 °C 2.8 °C 1004.3 hPa WSW 6.9 km/h 11.1 km/h 54 % 0 mm
03:45 11.8 °C 2.8 °C 1004.3 hPa WSW 5.1 km/h 11.1 km/h 54 % 0 mm
03:50 11.8 °C 2.8 °C 1004.6 hPa SW 6 km/h 9.7 km/h 54 % 0 mm
03:55 11.8 °C 2.8 °C 1004.6 hPa WSW 4.3 km/h 6.4 km/h 54 % 0 mm
04:00 11.9 °C 2.9 °C 1004.6 hPa SSW 7.2 km/h 9.7 km/h 54 % 0 mm
04:05 11.9 °C 2.9 °C 1004.6 hPa WNW 4.7 km/h 7.4 km/h 54 % 0 mm
04:10 11.9 °C 2.9 °C 1004.6 hPa SW 6.4 km/h 9.3 km/h 54 % 0 mm
04:15 11.9 °C 2.9 °C 1004.6 hPa WSW 2.7 km/h 8 km/h 54 % 0 mm
04:21 12 °C 2.9 °C 1004.6 hPa SSW 5 km/h 7.4 km/h 54 % 0 mm
04:26 11.9 °C 2.9 °C 1004.6 hPa SW 4.7 km/h 7.4 km/h 54 % 0 mm
04:31 11.9 °C 2.9 °C 1004.6 hPa SSW 5 km/h 11.1 km/h 54 % 0 mm
04:36 11.9 °C 2.9 °C 1004.6 hPa SW 4.7 km/h 8 km/h 54 % 0 mm
04:41 11.8 °C 2.8 °C 1004.6 hPa SW 3.9 km/h 7.4 km/h 54 % 0 mm
04:46 11.7 °C 2.7 °C 1005 hPa SW 2.4 km/h 5.6 km/h 54 % 0 mm
04:51 11.6 °C 2.9 °C 1005 hPa SW 3.7 km/h 5.6 km/h 55 % 0 mm
04:56 11.5 °C 2.8 °C 1005 hPa SW 3.4 km/h 6.4 km/h 55 % 0 mm
05:01 11.4 °C 2.7 °C 1005 hPa SW 4.7 km/h 9.3 km/h 55 % 0 mm
05:06 11.3 °C 2.9 °C 1005 hPa SW 4.7 km/h 6.4 km/h 56 % 0 mm
05:11 11.3 °C 2.8 °C 1005.3 hPa SSW 4.5 km/h 7.4 km/h 56 % 0 mm
05:16 11.3 °C 2.8 °C 1005 hPa WSW 5.6 km/h 7.4 km/h 56 % 0 mm
05:21 11.3 °C 2.8 °C 1005.3 hPa WSW 3.4 km/h 8 km/h 56 % 0 mm
05:26 11.3 °C 3.1 °C 1005.3 hPa WSW 5 km/h 5.6 km/h 57 % 0 mm
05:31 11.3 °C 3.1 °C 1005.3 hPa WSW 5.3 km/h 9.7 km/h 57 % 0 mm
05:36 11.3 °C 3.1 °C 1005.3 hPa SW 4.3 km/h 9.3 km/h 57 % 0 mm
05:41 11.3 °C 3.1 °C 1005.3 hPa WSW 3.9 km/h 5.6 km/h 57 % 0 mm
05:46 11.3 °C 3.1 °C 1005.3 hPa SSW 5.8 km/h 13 km/h 57 % 0 mm
05:51 11.3 °C 3.1 °C 1005.3 hPa West 4.5 km/h 14.5 km/h 57 % 0 mm
05:56 11.3 °C 3.1 °C 1005.3 hPa SSW 6.1 km/h 8 km/h 57 % 0 mm
06:01 11.3 °C 3.1 °C 1005.3 hPa SSW 3.5 km/h 13 km/h 57 % 0 mm
06:06 11.4 °C 3.2 °C 1005.3 hPa SW 6.6 km/h 9.3 km/h 57 % 0 mm
06:11 11.4 °C 3.2 °C 1005.6 hPa SW 3.5 km/h 5.6 km/h 57 % 0 mm
06:17 11.4 °C 3.2 °C 1005.6 hPa SW 4.3 km/h 9.3 km/h 57 % 0 mm
06:22 11.4 °C 3.4 °C 1005.6 hPa WSW 7.6 km/h 11.1 km/h 58 % 0 mm
06:27 11.4 °C 3.4 °C 1005.6 hPa WNW 4.5 km/h 7.4 km/h 58 % 0 mm
06:32 11.6 °C 3.6 °C 1005.6 hPa WSW 6.6 km/h 9.3 km/h 58 % 0 mm
06:37 11.6 °C 3.6 °C 1005.6 hPa WSW 6.9 km/h 9.3 km/h 58 % 0 mm
06:42 11.7 °C 3.5 °C 1005.6 hPa WSW 6.1 km/h 16.7 km/h 57 % 0 mm
06:47 11.8 °C 3.6 °C 1005.6 hPa WSW 7.6 km/h 13 km/h 57 % 0 mm
06:52 11.9 °C 3.7 °C 1005.6 hPa WSW 6.4 km/h 11.3 km/h 57 % 0 mm
06:57 12.1 °C 3.8 °C 1006 hPa West 7.9 km/h 14.8 km/h 57 % 0 mm
07:02 12.1 °C 3.8 °C 1006 hPa SW 5.6 km/h 9.7 km/h 57 % 0 mm
07:07 12.2 °C 3.9 °C 1006 hPa WSW 6.9 km/h 11.1 km/h 57 % 0 mm
07:12 12.2 °C 3.9 °C 1006.3 hPa WSW 5.8 km/h 7.4 km/h 57 % 0 mm
07:17 12.2 °C 3.9 °C 1006.3 hPa SW 6.3 km/h 7.4 km/h 57 % 0 mm
07:22 12.2 °C 3.9 °C 1006.3 hPa WSW 6.9 km/h 13 km/h 57 % 0 mm
07:27 12.1 °C 3.8 °C 1006.3 hPa SW 10.8 km/h 18.5 km/h 57 % 0 mm
07:32 12.1 °C 3.8 °C 1006.3 hPa SW 5.3 km/h 14.8 km/h 57 % 0 mm
07:37 12.1 °C 4.1 °C 1006.7 hPa WSW 6.4 km/h 11.3 km/h 58 % 0 mm
07:42 12.1 °C 4.1 °C 1006.7 hPa West 3.7 km/h 5.6 km/h 58 % 0 mm
07:47 12.1 °C 4.1 °C 1007 hPa WSW 4.3 km/h 5.6 km/h 58 % 0 mm
07:52 12.2 °C 4.2 °C 1006.7 hPa WSW 6.6 km/h 11.3 km/h 58 % 0 mm
07:57 12.3 °C 4.2 °C 1007 hPa SW 8 km/h 13 km/h 58 % 0 mm
08:02 12.3 °C 4.3 °C 1007 hPa SW 4.7 km/h 7.4 km/h 58 % 0 mm
08:08 12.3 °C 4.3 °C 1007 hPa SW 3.1 km/h 11.1 km/h 58 % 0 mm
08:13 12.4 °C 4.4 °C 1007.3 hPa SSW 1.4 km/h 5.6 km/h 58 % 0 mm
08:18 12.4 °C 4.4 °C 1007.3 hPa SW 4.7 km/h 5.6 km/h 58 % 0 mm
08:23 12.5 °C 4.2 °C 1007.3 hPa WSW 5.6 km/h 9.3 km/h 57 % 0 mm
08:28 12.5 °C 4.4 °C 1007.3 hPa WSW 5.5 km/h 8 km/h 58 % 0 mm
08:33 12.6 °C 4.5 °C 1007.3 hPa WSW 3.2 km/h 3.7 km/h 58 % 0 mm
08:38 12.6 °C 4.3 °C 1007.7 hPa WSW 5.3 km/h 13 km/h 57 % 0 mm
08:43 12.7 °C 4.3 °C 1007.7 hPa WSW 5.5 km/h 13 km/h 57 % 0 mm
08:48 12.8 °C 4.4 °C 1007.7 hPa SW 6.8 km/h 7.4 km/h 57 % 0 mm
08:58 13 °C 4.7 °C 1007.7 hPa WSW 7.2 km/h 13 km/h 57 % 0 mm
09:03 13.2 °C 4.8 °C 1007.7 hPa West 9.7 km/h 19.3 km/h 57 % 0 mm
09:08 13.3 °C 4.7 °C 1007.7 hPa WSW 8 km/h 12.9 km/h 56 % 0 mm
09:13 13.3 °C 4.7 °C 1007.7 hPa WSW 8 km/h 12.9 km/h 56 % 0 mm
09:18 13.5 °C 5.2 °C 1007.7 hPa WSW 4.8 km/h 12.9 km/h 57 % 0 mm
09:23 13.8 °C 4.9 °C 1007.7 hPa WSW 9.7 km/h 16.1 km/h 55 % 0 mm
09:28 14 °C 5.1 °C 1007.7 hPa WSW 8 km/h 12.9 km/h 55 % 0 mm
09:33 14.2 °C 5 °C 1007.7 hPa WSW 11.3 km/h 20.9 km/h 54 % 0 mm
09:38 14.4 °C 5.2 °C 1007.7 hPa WSW 12.9 km/h 18.5 km/h 54 % 0 mm
09:43 14.7 °C 5.4 °C 1007.7 hPa West 8 km/h 19.3 km/h 54 % 0 mm
09:48 14.9 °C 5.4 °C 1007.7 hPa West 8 km/h 20.9 km/h 53 % 0 mm
09:53 15.2 °C 5.7 °C 1008 hPa WSW 4.8 km/h 16.1 km/h 53 % 0 mm
09:58 15.4 °C 5.6 °C 1008 hPa SSW 8.7 km/h 14.8 km/h 52 % 0 mm
10:03 15.4 °C 5.6 °C 1008 hPa WSW 8 km/h 19.3 km/h 52 % 0 mm
10:08 15.5 °C 5.7 °C 1008 hPa WSW 9.7 km/h 12.9 km/h 52 % 0 mm
10:13 15.6 °C 5.5 °C 1008 hPa SW 4 km/h 9.3 km/h 51 % 0 mm
10:18 15.7 °C 5.9 °C 1008 hPa WSW 9.7 km/h 19.3 km/h 52 % 0 mm
10:23 15.9 °C 5.7 °C 1008 hPa WSW 4.8 km/h 20.9 km/h 51 % 0 mm
10:28 15.9 °C 5.8 °C 1007.7 hPa WSW 4.8 km/h 12.9 km/h 51 % 0 mm
10:33 16.1 °C 6.2 °C 1008 hPa West 3.2 km/h 14.5 km/h 52 % 0 mm
10:38 16.2 °C 5.8 °C 1008 hPa West 4.8 km/h 19.3 km/h 50 % 0 mm
10:39 16.2 °C 5.5 °C 1008 hPa WSW 10.6 km/h 18.5 km/h 49 % 0 mm
10:44 16.3 °C 6.2 °C 1007.7 hPa WSW 3.7 km/h 11.1 km/h 51 % 0 mm
10:49 16.6 °C 5.8 °C 1008 hPa SW 7.1 km/h 13 km/h 49 % 0 mm
10:54 16.7 °C 5.9 °C 1008 hPa WSW 3.1 km/h 14.8 km/h 49 % 0 mm
10:59 16.5 °C 5.4 °C 1008 hPa SW 11.1 km/h 14.8 km/h 48 % 0 mm
11:04 16.3 °C 5.2 °C 1008 hPa WSW 6.4 km/h 11.1 km/h 48 % 0 mm
11:09 16.1 °C 5.4 °C 1008 hPa WSW 6.9 km/h 13 km/h 49 % 0 mm
11:14 16 °C 5.3 °C 1008 hPa WSW 9 km/h 13 km/h 49 % 0 mm
11:19 15.8 °C 5.1 °C 1008 hPa WNW 5.6 km/h 11.1 km/h 49 % 0 mm
11:24 15.9 °C 5.4 °C 1008 hPa WSW 7.6 km/h 14.5 km/h 50 % 0 mm
11:29 15.9 °C 5.2 °C 1008 hPa WSW 4.8 km/h 14.8 km/h 49 % 0 mm
11:34 15.9 °C 5.2 °C 1008 hPa West 6.3 km/h 11.1 km/h 49 % 0 mm
11:39 15.8 °C 5.1 °C 1008 hPa West 2.7 km/h 5.6 km/h 49 % 0 mm
11:44 15.9 °C 5.2 °C 1008 hPa SW 4.7 km/h 8 km/h 49 % 0 mm
11:49 15.9 °C 5.2 °C 1007.7 hPa SW 7.6 km/h 16.7 km/h 49 % 0 mm
11:55 15.9 °C 5.2 °C 1007.7 hPa SW 3.2 km/h 7.4 km/h 49 % 0 mm
12:00 16.1 °C 4.7 °C 1007.7 hPa West 8.2 km/h 13 km/h 47 % 0 mm
12:05 16.1 °C 4.7 °C 1007.7 hPa WSW 5 km/h 7.4 km/h 47 % 0 mm
12:10 16.1 °C 4.8 °C 1007.3 hPa West 10.5 km/h 20.4 km/h 47 % 0 mm
12:15 16.2 °C 4.8 °C 1007.3 hPa WNW 3.9 km/h 11.3 km/h 47 % 0 mm
12:20 16.2 °C 4.8 °C 1007.3 hPa WNW 1.1 km/h 5.6 km/h 47 % 0 mm
12:25 16.1 °C 4.7 °C 1007.3 hPa WNW 7.6 km/h 14.8 km/h 47 % 0 mm
12:30 16 °C 5 °C 1007.3 hPa SW 5 km/h 12.9 km/h 48 % 0 mm
12:35 16.1 °C 5.1 °C 1007.3 hPa SW 9.3 km/h 19.3 km/h 48 % 0 mm
12:40 16.3 °C 5 °C 1007.3 hPa WSW 5 km/h 13 km/h 47 % 0 mm
12:45 16.6 °C 4.9 °C 1007.3 hPa SW 8.4 km/h 16.7 km/h 46 % 0 mm
12:50 16.7 °C 5 °C 1007.3 hPa West 4.5 km/h 13 km/h 46 % 0 mm
12:55 16.8 °C 5.1 °C 1007.3 hPa West 6.4 km/h 9.7 km/h 46 % 0 mm
13:00 16.9 °C 4.9 °C 1007.3 hPa SW 6.3 km/h 14.5 km/h 45 % 0 mm
13:05 17.1 °C 4.7 °C 1007.3 hPa WSW 8.9 km/h 14.5 km/h 44 % 0 mm
13:10 17.2 °C 4.8 °C 1007.3 hPa WSW 8.5 km/h 18.5 km/h 44 % 0 mm
13:15 17.3 °C 4.6 °C 1007.3 hPa SSW 7.2 km/h 13 km/h 43 % 0 mm
13:20 17.4 °C 4.4 °C 1007.3 hPa West 10.3 km/h 18.5 km/h 42 % 0 mm
13:25 17.4 °C 4.3 °C 1007.3 hPa West 3.2 km/h 13 km/h 42 % 0 mm
13:30 17.2 °C 4.2 °C 1007.3 hPa WNW 8.5 km/h 13 km/h 42 % 0 mm
13:35 17.2 °C 4.4 °C 1007.3 hPa WNW 7.9 km/h 11.1 km/h 43 % 0 mm
13:40 17.2 °C 4.4 °C 1007.3 hPa West 7.7 km/h 14.8 km/h 43 % 0 mm
13:45 17.2 °C 4.5 °C 1007.3 hPa West 6.4 km/h 13 km/h 43 % 0 mm
13:50 17.3 °C 3.9 °C 1007.3 hPa West 12.6 km/h 24.1 km/h 41 % 0 mm
13:56 17.4 °C 4 °C 1007.3 hPa WNW 12.1 km/h 24.1 km/h 41 % 0 mm
14:01 17.4 °C 4.1 °C 1007.3 hPa WNW 10.1 km/h 16.7 km/h 41 % 0 mm
14:06 17.4 °C 4.1 °C 1007.3 hPa West 7.4 km/h 16.1 km/h 41 % 0 mm
14:11 17.6 °C 4.2 °C 1007 hPa West 8.5 km/h 13 km/h 41 % 0 mm
14:16 17.6 °C 4.2 °C 1007.3 hPa WNW 9.3 km/h 14.8 km/h 41 % 0 mm
14:21 17.6 °C 4.2 °C 1007.3 hPa West 11.3 km/h 18.5 km/h 41 % 0 mm
14:26 17.5 °C 3.7 °C 1007.3 hPa West 9 km/h 16.7 km/h 40 % 0 mm
14:31 17.4 °C 3.7 °C 1007.3 hPa WNW 9.2 km/h 20.4 km/h 40 % 0 mm
14:36 17.4 °C 4 °C 1007.3 hPa NW 11.9 km/h 18.5 km/h 41 % 0 mm
14:41 17.3 °C 3.9 °C 1007.3 hPa WNW 9.8 km/h 14.8 km/h 41 % 0 mm
14:46 17.3 °C 3.9 °C 1007.3 hPa NW 4.3 km/h 11.1 km/h 41 % 0 mm
14:51 17.2 °C 3.5 °C 1007.3 hPa West 9.8 km/h 13 km/h 40 % 0 mm
14:56 17.1 °C 3.7 °C 1007.3 hPa WSW 9 km/h 18.5 km/h 41 % 0 mm
15:01 17 °C 4 °C 1007.3 hPa WSW 6.4 km/h 9.3 km/h 42 % 0 mm
15:06 16.9 °C 3.6 °C 1007.7 hPa West 8.7 km/h 16.1 km/h 41 % 0 mm
15:11 16.9 °C 3.6 °C 1007.7 hPa WNW 1.6 km/h 7.4 km/h 41 % 0 mm
15:16 16.9 °C 3.9 °C 1007.7 hPa WSW 4.3 km/h 5.6 km/h 42 % 0 mm
15:26 16.9 °C 3.6 °C 1007.7 hPa NW 4 km/h 7.4 km/h 41 % 0 mm
15:31 16.8 °C 3.5 °C 1007.7 hPa WNW 3.9 km/h 14.8 km/h 41 % 0 mm
15:36 16.8 °C 3.1 °C 1008 hPa WNW 7.9 km/h 11.1 km/h 40 % 0 mm
15:46 16.6 °C 3.3 °C 1008 hPa West 3.1 km/h 5.6 km/h 41 % 0 mm
15:51 16.6 °C 3.2 °C 1008 hPa WSW 9.8 km/h 18.5 km/h 41 % 0 mm
15:57 16.5 °C 3.2 °C 1008 hPa West 10.9 km/h 18.5 km/h 41 % 0 mm
16:02 16.4 °C 3.2 °C 1008 hPa NW 5.5 km/h 8 km/h 41 % 0 mm
16:07 16.4 °C 3.1 °C 1008 hPa WNW 6 km/h 9.3 km/h 41 % 0 mm
16:12 16.3 °C 3.1 °C 1008 hPa SW 5 km/h 7.4 km/h 41 % 0 mm
16:17 16.3 °C 3 °C 1008.4 hPa NW 5.8 km/h 8 km/h 41 % 0 mm
16:22 16.2 °C 3.3 °C 1008.4 hPa SW 3.4 km/h 14.5 km/h 42 % 0 mm
16:27 16.2 °C 3.2 °C 1008.4 hPa WSW 0.2 km/h 5.6 km/h 42 % 0 mm
16:32 16.1 °C 2.8 °C 1008.4 hPa West 5.1 km/h 9.3 km/h 41 % 0 mm
16:37 16 °C 3.1 °C 1008.4 hPa WSW 7.1 km/h 18.5 km/h 42 % 0 mm
16:42 15.9 °C 3.1 °C 1008.7 hPa WSW 6.8 km/h 13 km/h 42 % 0 mm
16:47 15.8 °C 2.9 °C 1008.7 hPa WSW 8 km/h 11.1 km/h 42 % 0 mm
16:52 15.7 °C 2.8 °C 1008.7 hPa WSW 6.1 km/h 16.7 km/h 42 % 0 mm
16:57 15.6 °C 3 °C 1008.7 hPa West 6 km/h 11.1 km/h 43 % 0 mm
17:02 15.4 °C 2.9 °C 1009 hPa WSW 2.1 km/h 11.1 km/h 43 % 0 mm
17:07 15.3 °C 2.8 °C 1009 hPa WSW 6.3 km/h 11.3 km/h 43 % 0 mm
17:12 15.2 °C 2.7 °C 1009 hPa SW 6.9 km/h 14.8 km/h 43 % 0 mm
17:17 15.2 °C 2.7 °C 1009 hPa West 1.4 km/h 5.6 km/h 43 % 0 mm
17:22 15.1 °C 2.6 °C 1009.4 hPa West 7.4 km/h 11.1 km/h 43 % 0 mm
17:27 14.9 °C 2.4 °C 1009.4 hPa West 9.3 km/h 14.8 km/h 43 % 0 mm
17:32 14.8 °C 2.3 °C 1009.4 hPa West 2.6 km/h 13 km/h 43 % 0 mm
17:37 14.8 °C 2 °C 1009.7 hPa West 5.6 km/h 11.3 km/h 42 % 0 mm
17:42 14.7 °C 1.9 °C 1009.7 hPa WNW 7.4 km/h 14.8 km/h 42 % 0 mm
17:47 14.6 °C 1.8 °C 1009.7 hPa West 7.7 km/h 16.7 km/h 42 % 0 mm
17:52 14.4 °C 1.7 °C 1009.7 hPa WNW 5.5 km/h 9.3 km/h 42 % 0 mm
17:57 14.4 °C 1.6 °C 1010 hPa WSW 4.8 km/h 9.3 km/h 42 % 0 mm
18:03 14.3 °C 1.5 °C 1010 hPa WSW 4.2 km/h 13 km/h 42 % 0 mm
18:08 14.2 °C 1.5 °C 1010 hPa WNW 1.3 km/h 3.7 km/h 42 % 0 mm
18:13 14.2 °C 1.1 °C 1010 hPa West 0.2 km/h 5.6 km/h 41 % 0 mm
18:18 14.1 °C 1.3 °C 1010 hPa West 2.1 km/h 3.7 km/h 42 % 0 mm
18:23 13.9 °C 1.2 °C 1010 hPa WSW 2.4 km/h 4.8 km/h 42 % 0 mm
18:28 13.8 °C 1.1 °C 1010 hPa West 3.5 km/h 6.4 km/h 42 % 0 mm
18:33 13.7 °C 0.7 °C 1010.4 hPa WNW 5.5 km/h 7.4 km/h 41 % 0 mm
18:38 13.7 °C 1 °C 1010.4 hPa WNW 2.6 km/h 4.8 km/h 42 % 0 mm
18:43 13.6 °C 0.9 °C 1010.7 hPa West 8.5 km/h 11.1 km/h 42 % 0 mm
18:48 13.5 °C 0.8 °C 1010.4 hPa WNW 7.9 km/h 11.1 km/h 42 % 0 mm
18:53 13.4 °C 0.8 °C 1010.4 hPa West 5.1 km/h 9.7 km/h 42 % 0 mm
18:58 13.4 °C 0.8 °C 1010.7 hPa WNW 6.1 km/h 14.8 km/h 42 % 0 mm
19:03 13.4 °C 0.7 °C 1010.7 hPa West 5.8 km/h 14.8 km/h 42 % 0 mm
19:08 13.3 °C 0.7 °C 1010.7 hPa WNW 4.8 km/h 11.3 km/h 42 % 0 mm
19:13 13.3 °C 0.9 °C 1010.7 hPa WNW 4.8 km/h 11.3 km/h 43 % 0 mm
19:18 13.2 °C 0.9 °C 1010.7 hPa WNW 4.8 km/h 12.9 km/h 43 % 0 mm
19:23 13.2 °C 0.8 °C 1010.7 hPa WNW 4 km/h 13 km/h 43 % 0 mm
19:28 13.1 °C 0.8 °C 1010.7 hPa WNW 3.2 km/h 6.4 km/h 43 % 0 mm
19:33 13 °C 0.7 °C 1010.7 hPa West 3.2 km/h 8 km/h 43 % 0 mm
19:38 12.9 °C 0.7 °C 1010.7 hPa WNW 3.2 km/h 8 km/h 43 % 0 mm
19:43 12.8 °C 0.6 °C 1010.7 hPa WNW 4.8 km/h 9.7 km/h 43 % 0 mm
19:48 12.8 °C 0.5 °C 1011.1 hPa WNW 4.8 km/h 14.5 km/h 43 % 0 mm
19:53 12.7 °C 0.4 °C 1011.1 hPa WNW 1.6 km/h 9.7 km/h 43 % 0 mm
19:58 12.7 °C 0.4 °C 1011.1 hPa WNW 3.5 km/h 9.3 km/h 43 % 0 mm
20:03 12.6 °C 0.7 °C 1011.1 hPa West 4.3 km/h 6.4 km/h 44 % 0 mm
20:08 12.4 °C 0.5 °C 1011.4 hPa WNW 2.4 km/h 9.3 km/h 44 % 0 mm
20:13 12.4 °C 0.4 °C 1011.4 hPa West 3.5 km/h 5.6 km/h 44 % 0 mm
20:18 12.3 °C 0.3 °C 1011.7 hPa WSW 3.9 km/h 8 km/h 44 % 0 mm
20:23 12.2 °C 0.6 °C 1011.7 hPa WNW 3.5 km/h 7.4 km/h 45 % 0 mm
20:29 12.1 °C 0.4 °C 1011.7 hPa West 4.3 km/h 7.4 km/h 45 % 0 mm
20:34 11.9 °C 0.4 °C 1012.1 hPa West 4.3 km/h 8 km/h 45 % 0 mm
20:39 11.8 °C 0.6 °C 1012.1 hPa West 2.7 km/h 7.4 km/h 46 % 0 mm
20:44 11.7 °C 0.4 °C 1012.1 hPa West 2.4 km/h 5.6 km/h 46 % 0 mm
20:49 11.7 °C 0.4 °C 1012.4 hPa West 1.4 km/h 3.7 km/h 46 % 0 mm
20:54 11.6 °C 0.3 °C 1012.4 hPa WNW 1.9 km/h 1.9 km/h 46 % 0 mm
20:59 11.4 °C 0.5 °C 1012.4 hPa West 3.1 km/h 7.4 km/h 47 % 0 mm
21:04 11.3 °C 0.4 °C 1012.8 hPa WNW 1.1 km/h 3.7 km/h 47 % 0 mm
21:09 11.2 °C 0.6 °C 1012.8 hPa WNW 2.3 km/h 3.7 km/h 48 % 0 mm
21:14 11 °C 0.7 °C 1012.8 hPa SW 1.8 km/h 3.7 km/h 49 % 0 mm
21:19 10.8 °C 0.8 °C 1012.8 hPa SW 1.3 km/h 1.9 km/h 50 % 0 mm
21:24 10.6 °C 0.6 °C 1012.8 hPa Calm     50 % 0 mm
21:29 10.4 °C 0.7 °C 1012.8 hPa Calm   1.9 km/h 51 % 0 mm
21:34 10.3 °C 0.6 °C 1012.8 hPa SW 1.1 km/h 3.7 km/h 51 % 0 mm
21:39 10.1 °C 0.6 °C 1012.8 hPa SW 0.8 km/h 3.7 km/h 52 % 0 mm
21:44 9.8 °C 0.7 °C 1012.8 hPa SW 2.1 km/h 5.6 km/h 53 % 0 mm
21:49 9.7 °C 0.6 °C 1012.8 hPa Calm     53 % 0 mm
21:54 9.5 °C 0.7 °C 1012.8 hPa SW 1.1 km/h 3.2 km/h 54 % 0 mm
21:59 9.3 °C 0.5 °C 1012.8 hPa SW 0.5 km/h 3.7 km/h 54 % 0 mm
22:04 9.2 °C 0.6 °C 1012.8 hPa WSW 2.9 km/h 5.6 km/h 55 % 0 mm
22:09 9 °C 0.7 °C 1012.8 hPa WSW 2.1 km/h 3.7 km/h 56 % 0 mm
22:14 8.9 °C 0.6 °C 1012.8 hPa SW 3.9 km/h 5.6 km/h 56 % 0 mm
22:20 8.8 °C 0.7 °C 1012.8 hPa SW 3.1 km/h 5.6 km/h 57 % 0 mm
22:25 8.7 °C 0.6 °C 1012.8 hPa SW 0.6 km/h 3.7 km/h 57 % 0 mm
22:30 8.5 °C 0.7 °C 1012.8 hPa WSW 1.9 km/h 5.6 km/h 58 % 0 mm
22:35 8.4 °C 0.6 °C 1013.1 hPa West 1.4 km/h 4.8 km/h 58 % 0 mm
22:40 8.3 °C 0.6 °C 1013.1 hPa West 3.1 km/h 4.8 km/h 58 % 0 mm
22:45 8.3 °C 0.6 °C 1013.1 hPa WSW 4 km/h 5.6 km/h 58 % 0 mm
22:50 8.3 °C 0.6 °C 1013.1 hPa WSW 1 km/h 1.9 km/h 58 % 0 mm
22:55 8.3 °C 0.6 °C 1013.1 hPa WSW 0.6 km/h 3.7 km/h 58 % 0 mm
23:00 8.3 °C 0.8 °C 1013.1 hPa ENE 2.4 km/h 5.6 km/h 59 % 0 mm
23:05 8.3 °C 0.7 °C 1013.1 hPa NNW 0.3 km/h 5.6 km/h 59 % 0 mm
23:10 8.2 °C 0.9 °C 1013.4 hPa NNW 1 km/h 1.9 km/h 60 % 0 mm
23:15 8.1 °C 1.3 °C 1013.4 hPa NW 3.4 km/h 7.4 km/h 62 % 0 mm
23:20 8.1 °C 1.2 °C 1013.4 hPa WNW 4.2 km/h 5.6 km/h 62 % 0 mm
23:25 8 °C 1.4 °C 1013.8 hPa WNW 4 km/h 5.6 km/h 63 % 0 mm
23:30 7.9 °C 1.3 °C 1013.8 hPa WNW 2.1 km/h 5.6 km/h 63 % 0 mm
23:35 7.9 °C 1.3 °C 1013.8 hPa WNW 1.1 km/h 5.6 km/h 63 % 0 mm
23:40 7.8 °C 1.2 °C 1013.8 hPa Calm   5.6 km/h 63 % 0 mm
23:45 7.8 °C 1.4 °C 1013.8 hPa WNW 0.6 km/h 3.2 km/h 64 % 0 mm
23:50 7.6 °C 1.2 °C 1013.8 hPa Calm     64 % 0 mm
23:55 7.5 °C 1.3 °C 1013.8 hPa WNW 1.1 km/h 3.7 km/h 65 % 0 mm
Crab Meadow Weather
Compliments of Weather Underground - 3 mb

Script developed by  Jim McMurry - jmcmurry@mwt.net Adapted for the template by  Wim van der Kuil - Leuven-Template.eu

Weather Terms: Relative Humidity - The ratio of the amount of water vapor actually present in the air to the greatest amount possible at the same temperature.